Wind_Speed
29 30 31 31 33 36 38 36 37 38 38 36 36 34 26 23 23 25 28 30 30 29 29 27 25 25 23 22 22 21 21 20 19 18 17 19 21 22 23 23 23 24 25
23 23 24 26 28 29 30 34 37 40 43 43 41 36 35 32 32 29 30 32 32 30 28 27 25 23 22 21 20 19 19 20 19 18 19 21 22 22 23 24 23 24 25
16 18 19 21 21 18 19 25 34 37 42 46 44 42 42 42 40 33 30 31 31 28 26 26 26 24 22 22 20 18 19 19 19 19 21 21 22 23 25 25 25 24 24
21 28 24 27 27 27 28 25 23 30 36 41 45 47 47 42 37 31 30 31 31 27 26 25 24 23 21 20 20 19 18 18 19 21 20 21 23 25 25 25 24 23 23
34 37 33 34 33 30 28 30 26 27 29 35 43 48 50 47 42 36 30 24 32 24 23 23 23 23 23 22 19 19 18 18 20 20 21 23 23 23 22 23 23 22 21
28 29 29 32 31 36 37 37 38 32 25 24 40 50 41 30 29 27 28 15 18 21 22 22 23 23 23 21 18 17 17 18 18 20 21 22 22 20 22 22 22 20 16
23 27 28 28 31 32 34 37 41 35 24 28 38 39 31 22 15 13 18 21 26 33 26 25 24 25 23 19 18 18 18 15 15 18 20 21 20 21 23 21 17 16 13
23 22 22 24 27 31 30 27 26 24 13 18 21 23 22 16 19 18 20 20 19 21 21 23 23 23 22 22 21 18 16 15 15 17 19 21 21 20 19 17 15 14 12
19 21 27 33 32 21 19 17 14 17 23 23 28 11 7 8 12 14 18 19 20 20 25 25 27 26 24 23 22 19 15 14 15 17 19 20 20 17 14 13 13 12 11
31 34 38 37 31 31 32 23 15 15 12 11 10 4 9 10 15 18 26 27 30 30 26 26 27 27 23 23 21 18 17 18 18 17 18 19 15 14 11 12 12 12 12
41 42 40 41 38 32 29 23 23 20 18 13 11 8 11 12 14 16 22 24 27 28 28 27 29 30 27 25 23 20 21 20 19 18 18 16 14 13 11 13 13 12 12
47 49 45 39 24 29 28 27 24 24 24 22 18 12 13 17 15 14 16 18 20 30 30 33 35 39 24 25 24 24 20 19 20 20 17 16 15 13 13 14 13 12 11
31 32 28 28 25 27 27 29 25 23 25 25 25 19 17 17 18 16 15 18 23 24 31 36 35 36 34 24 26 24 22 19 21 19 17 17 16 15 15 15 14 13 12
33 28 27 26 27 28 28 29 31 31 29 30 27 28 25 24 25 19 18 21 20 19 21 20 26 36 32 27 27 27 26 21 18 18 19 17 18 17 17 16 15 14 12
26 24 22 22 26 27 29 29 29 30 31 32 31 32 33 31 27 28 22 23 21 20 21 22 25 25 32 33 33 31 26 20 19 21 19 20 19 18 19 18 17 16 14
24 22 19 22 24 28 31 33 36 40 42 40 39 38 36 35 34 30 32 29 25 23 19 22 24 23 22 24 30 30 22 20 20 24 24 21 21 21 21 20 19 17 16
22 23 26 26 25 26 27 28 31 29 27 29 32 33 34 31 33 32 34 33 25 23 22 23 21 18 17 17 21 19 19 20 23 22 23 24 23 23 23 22 21 20 19
20 17 20 22 22 23 25 24 23 22 22 19 20 21 21 27 29 31 32 30 26 26 28 20 17 18 16 20 22 26 24 23 23 24 26 25 25 25 25 24 23 22 22
12 15 17 21 22 24 26 24 23 20 19 18 16 16 21 23 27 30 34 33 35 25 15 24 21 17 19 18 19 23 25 25 25 28 27 25 26 25 25 25 25 24 23
16 18 20 25 25 23 23 25 24 19 18 16 13 15 14 18 20 23 24 17 18 13 12 20 22 20 19 21 24 24 26 26 25 27 26 24 26 26 27 27 26 26 25
18 19 22 26 24 23 23 20 21 19 18 15 15 11 11 12 16 17 21 16 18 18 15 18 23 24 23 25 24 24 25 24 27 29 29 28 27 28 28 28 28 27 27
17 20 23 27 24 21 20 22 20 19 18 15 14 11 14 14 16 15 17 19 22 20 21 22 25 26 25 23 23 25 24 25 29 30 28 29 29 28 29 29 29 28 28
18 22 24 26 24 21 22 27 22 17 20 16 15 13 15 16 15 15 17 19 20 22 24 25 26 25 23 24 25 25 24 26 30 30 30 30 28 28 28 29 29 29 29
18 19 24 25 23 19 19 24 18 17 18 15 13 12 13 14 14 15 16 17 17 16 20 21 20 20 22 22 22 24 23 24 28 30 27 26 27 27 29 29 28 29 29
17 19 21 17 17 17 15 17 15 7 12 12 12 12 14 15 15 16 16 17 17 16 17 18 18 17 17 17 19 21 21 22 25 28 26 27 28 29 28 27 28 29 30
16 18 17 16 17 18 16 14 14 14 13 10 12 13 14 14 14 15 16 16 16 15 16 15 15 16 17 19 21 22 22 24 27 28 29 28 28 28 28 29 29 30 30
Wind_Direction
278 277 277 278 276 272 271 268 268 273 272 270 267 254 251 253 256 255 248 243 242 244 244 242 238 237 236 238 241 241 244 255 259 264 272 274 276 279 282 286 291 293 293
290 287 286 283 281 278 273 268 265 264 267 268 263 258 257 254 255 251 243 240 240 239 242 241 236 233 235 233 234 240 253 257 260 265 267 269 272 278 283 286 291 295 295
299 311 300 298 297 289 287 273 259 257 262 265 266 259 256 251 252 248 243 239 240 238 236 239 239 233 225 224 228 239 247 255 260 259 261 267 275 280 282 286 289 291 292
287 314 303 305 305 305 306 306 295 264 259 265 265 264 261 256 252 245 236 235 237 233 229 228 228 222 223 225 234 238 243 250 255 259 265 272 278 278 281 284 286 288 290
302 305 308 310 308 306 309 311 307 283 258 254 261 261 252 244 235 234 233 221 223 226 227 219 219 220 220 226 226 236 240 246 255 264 270 272 275 278 281 282 284 282 283
293 295 298 302 299 300 304 309 311 304 269 252 256 243 243 250 263 264 254 233 207 211 225 222 222 218 220 218 221 232 242 251 264 272 273 273 275 283 281 277 277 275 270
296 294 292 296 295 292 291 296 304 304 266 258 254 249 261 261 237 245 228 226 232 222 208 215 211 216 217 213 220 231 242 253 267 272 273 272 277 278 274 270 268 262 258
289 291 295 301 304 303 302 301 304 298 254 294 303 306 305 277 246 235 258 219 220 214 214 213 217 221 214 217 226 232 244 254 261 267 270 270 270 268 264 255 245 242 232
294 307 311 312 303 296 303 321 327 311 315 328 331 326 270 241 232 248 254 242 239 226 222 216 215 212 219 230 231 238 251 261 267 273 271 268 261 248 235 233 227 215 206
296 300 303 297 295 305 294 282 277 296 312 330 319 175 209 228 242 241 232 236 240 227 223 221 218 220 228 234 236 242 252 259 265 268 267 260 244 217 189 200 205 209 218
299 296 294 294 295 291 287 277 268 268 270 276 299 268 253 241 252 247 233 241 226 219 218 220 221 226 230 232 236 245 252 257 263 266 262 245 224 203 187 205 215 222 227
291 292 290 290 290 290 278 269 262 273 272 266 243 268 259 241 246 249 236 240 234 227 221 222 222 227 231 234 239 243 250 261 265 265 258 232 223 210 208 218 220 222 226
287 290 289 287 283 284 278 265 280 278 272 268 270 247 256 261 253 236 233 233 235 242 242 234 229 241 236 230 238 242 245 252 258 260 250 227 224 218 219 223 221 221 220
285 283 282 274 279 274 280 277 275 273 277 274 268 261 256 253 254 238 236 247 256 261 267 261 250 245 243 227 232 239 242 241 248 246 250 230 226 221 219 222 221 221 220
293 281 281 279 267 272 275 276 278 277 277 279 272 263 256 254 252 251 248 245 250 258 260 268 267 272 248 244 231 226 229 237 240 251 246 237 226 223 223 217 218 220 220
287 283 281 286 280 275 275 275 276 279 281 281 280 269 261 257 254 252 255 259 243 254 255 263 263 267 266 265 254 230 213 227 243 251 250 233 225 222 223 220 218 218 219
281 278 282 286 286 285 283 283 283 287 287 286 280 273 258 251 244 247 251 250 256 251 256 260 257 260 263 253 244 252 244 238 246 254 239 229 223 222 222 222 220 219 219
279 280 286 295 292 297 292 300 294 289 294 296 296 289 251 241 243 243 244 244 246 251 251 241 259 253 248 242 265 242 245 244 250 249 233 229 224 222 222 222 222 221 221
287 294 300 316 308 300 298 295 301 287 290 293 298 289 255 245 243 248 245 239 250 245 280 243 250 261 250 254 250 239 240 245 250 247 228 225 226 223 224 224 223 223 224
284 293 311 316 310 307 303 290 279 279 287 291 293 276 259 237 235 240 230 238 241 232 255 256 247 256 253 248 242 240 244 248 249 232 226 227 224 222 223 226 225 224 227
286 302 311 321 315 311 321 309 281 276 281 278 281 276 265 255 254 257 246 235 245 240 247 242 246 258 266 261 252 248 247 243 237 222 224 225 222 222 224 226 227 227 230
287 306 317 320 312 306 314 314 288 278 275 263 265 266 264 265 261 250 247 247 241 230 237 242 251 262 268 263 252 247 242 243 240 223 220 223 221 224 226 228 230 231 233
289 301 312 318 309 307 306 321 277 271 267 258 259 259 262 258 256 254 250 248 245 238 239 248 254 258 263 260 253 248 241 241 233 217 220 225 226 228 231 234 235 236 238
292 296 306 310 304 311 325 339 245 243 257 253 254 257 260 262 261 260 257 252 255 250 242 251 258 258 258 254 251 247 242 242 235 222 222 230 234 235 235 237 239 240 242
297 290 307 312 305 310 325 327 329 245 233 246 253 264 266 264 262 260 259 256 252 248 243 247 250 252 257 257 245 238 240 233 238 227 215 230 237 239 240 241 243 244 246
293 290 303 300 309 292 306 314 323 321 324 320 293 280 271 267 263 260 259 255 252 248 246 248 251 255 259 257 249 238 228 221 212 212 221 234 241 243 243 244 246 248 249
Height
3094 3094 3094 3093 3092 3092 3092 3093 3092 3091 3091 3091 3090 3089 3089 3089 3088 3088 3089 3090 3091 3092 3093 3095 3096 3097 3099 3101 3103 3104 3104 3104 3105 3105 3105 3105 3105 3106 3107 3106 3106 3105 3103
3086 3085 3084 3084 3084 3083 3083 3082 3082 3082 3081 3081 3081 3084 3084 3082 3079 3079 3079 3081 3082 3083 3086 3088 3089 3090 3092 3094 3097 3099 3100 3099 3099 3099 3099 3098 3099 3098 3098 3099 3099 3099 3098
3079 3080 3079 3079 3078 3077 3075 3073 3071 3070 3071 3071 3073 3073 3073 3074 3072 3071 3071 3071 3073 3076 3077 3080 3083 3084 3086 3087 3089 3091 3093 3095 3095 3094 3094 3091 3091 3091 3091 3092 3092 3091 3091
3073 3073 3073 3071 3070 3069 3068 3067 3065 3061 3061 3062 3062 3063 3063 3064 3065 3064 3060 3061 3062 3064 3066 3070 3075 3075 3079 3083 3084 3085 3086 3087 3089 3089 3088 3086 3086 3084 3085 3084 3085 3084 3084
3066 3065 3063 3063 3061 3060 3058 3057 3056 3054 3052 3053 3053 3053 3051 3049 3043 3041 3044 3045 3050 3055 3060 3062 3068 3070 3071 3076 3077 3079 3081 3081 3084 3083 3082 3080 3079 3079 3080 3077 3077 3077 3076
3064 3062 3060 3058 3055 3051 3048 3045 3044 3044 3042 3044 3044 3040 3037 3035 3037 3034 3036 3034 3037 3045 3052 3057 3061 3066 3067 3069 3071 3074 3076 3076 3075 3076 3076 3074 3072 3071 3077 3074 3070 3071 3070
3057 3056 3054 3051 3049 3047 3045 3042 3038 3036 3035 3035 3035 3034 3033 3033 3029 3033 3034 3033 3036 3039 3045 3052 3054 3060 3062 3064 3066 3068 3071 3070 3069 3072 3071 3070 3066 3067 3071 3067 3062 3064 3065
3051 3050 3049 3047 3045 3042 3040 3037 3034 3031 3029 3028 3029 3030 3028 3030 3027 3028 3033 3029 3032 3035 3043 3048 3051 3058 3058 3059 3060 3061 3064 3064 3065 3065 3064 3065 3062 3059 3063 3063 3058 3059 3061
3046 3046 3045 3043 3041 3036 3034 3032 3030 3029 3026 3023 3019 3023 3021 3021 3023 3025 3027 3028 3030 3033 3038 3042 3046 3050 3052 3054 3055 3056 3057 3058 3058 3058 3060 3059 3057 3055 3049 3056 3056 3057 3059
3041 3040 3039 3037 3034 3032 3030 3027 3026 3024 3023 3020 3018 3016 3018 3017 3019 3020 3021 3024 3026 3030 3033 3037 3040 3044 3047 3049 3050 3050 3050 3051 3054 3052 3055 3056 3054 3051 3036 3049 3054 3055 3058
3032 3030 3030 3029 3026 3024 3023 3022 3020 3019 3018 3017 3017 3015 3016 3016 3016 3015 3018 3018 3018 3022 3027 3030 3033 3035 3038 3041 3044 3044 3045 3045 3048 3049 3051 3051 3050 3046 3036 3046 3051 3053 3055
3024 3021 3018 3018 3016 3014 3014 3013 3013 3012 3010 3009 3008 3011 3013 3013 3013 3013 3015 3015 3014 3017 3018 3019 3023 3026 3029 3035 3036 3038 3037 3041 3043 3045 3046 3046 3046 3039 3038 3044 3047 3049 3051
3013 3011 3011 3009 3007 3006 3005 3004 3005 3005 3005 3004 3003 3004 3008 3008 3009 3010 3009 3010 3012 3014 3013 3015 3017 3019 3021 3026 3030 3031 3028 3035 3038 3040 3040 3040 3039 3034 3036 3040 3043 3045 3048
3005 3004 3002 3001 3000 3000 2998 2997 2998 2998 2997 2998 2998 2999 3001 3003 3002 3001 3004 3006 3006 3007 3007 3008 3009 3010 3012 3017 3020 3023 3024 3029 3031 3032 3034 3032 3033 3032 3034 3037 3040 3042 3044
3000 2997 2994 2993 2994 2994 2992 2991 2991 2990 2989 2989 2990 2992 2993 2994 2995 2995 2995 2997 2999 3000 3002 3000 3001 3004 3006 3008 3009 3012 3016 3021 3024 3026 3025 3026 3027 3028 3031 3034 3036 3039 3041
2993 2992 2991 2988 2988 2987 2985 2984 2983 2981 2979 2978 2978 2977 2978 2980 2983 2987 2987 2990 2990 2992 2993 2995 2996 2999 3000 2999 3001 3003 3006 3012 3016 3019 3019 3020 3022 3024 3027 3029 3032 3035 3037
2987 2987 2986 2982 2981 2980 2977 2975 2973 2971 2969 2967 2965 2963 2965 2969 2973 2977 2978 2980 2982 2985 2987 2989 2991 2992 2994 2995 2997 3000 3002 3005 3010 3010 3011 3014 3016 3019 3022 3025 3028 3030 3033
2982 2981 2979 2977 2975 2972 2970 2969 2967 2964 2962 2959 2957 2955 2956 2959 2964 2967 2969 2972 2975 2978 2978 2981 2985 2987 2988 2991 2993 2995 2998 2999 3001 3003 3006 3009 3011 3014 3017 3020 3023 3026 3028
2977 2975 2973 2971 2967 2965 2962 2961 2960 2959 2956 2954 2952 2951 2951 2953 2957 2960 2963 2965 2967 2969 2972 2973 2977 2979 2981 2983 2985 2987 2990 2991 2994 2996 3000 3003 3007 3009 3013 3016 3018 3021 3023
2972 2970 2968 2965 2961 2959 2956 2953 2951 2951 2951 2950 2949 2949 2948 2949 2952 2954 2956 2957 2960 2963 2967 2969 2972 2974 2975 2977 2979 2980 2982 2984 2985 2989 2994 2998 3001 3003 3006 3010 3013 3015 3017
2967 2965 2963 2960 2956 2953 2950 2946 2945 2945 2945 2945 2945 2945 2946 2947 2949 2950 2951 2952 2955 2959 2961 2964 2965 2966 2968 2970 2970 2971 2973 2975 2978 2982 2987 2991 2994 2997 3000 3004 3006 3009 3011
2961 2960 2957 2954 2951 2948 2945 2942 2941 2941 2940 2940 2941 2941 2943 2944 2945 2945 2947 2949 2951 2953 2955 2957 2958 2959 2960 2961 2963 2964 2966 2969 2971 2975 2980 2984 2987 2990 2994 2997 3000 3003 3005
2956 2954 2952 2950 2946 2943 2940 2936 2935 2935 2935 2935 2937 2938 2939 2940 2940 2941 2942 2944 2945 2947 2949 2950 2952 2953 2954 2954 2955 2957 2960 2962 2965 2968 2973 2977 2981 2984 2988 2991 2994 2996 2999
2951 2949 2947 2945 2942 2938 2936 2932 2927 2929 2931 2931 2932 2933 2935 2936 2936 2936 2937 2938 2939 2940 2942 2944 2946 2946 2947 2947 2949 2951 2953 2956 2958 2961 2967 2972 2976 2980 2982 2983 2987 2990 2992
2945 2943 2942 2940 2937 2934 2933 2931 2927 2924 2926 2926 2927 2928 2930 2931 2931 2931 2932 2933 2934 2935 2936 2938 2940 2941 2942 2943 2943 2945 2948 2951 2954 2956 2961 2966 2970 2973 2975 2978 2980 2982 2985
2939 2938 2937 2936 2934 2931 2929 2929 2927 2925 2923 2924 2924 2925 2925 2926 2926 2927 2927 2928 2929 2930 2932 2933 2934 2936 2937 2937 2938 2940 2942 2944 2947 2951 2955 2960 2963 2966 2968 2970 2973 2975 2976